Location: ??
(34.7707°N, 135.6540°E)
Time: 18:49:41
(UTC+00:00)

USA 238 DEB - Pass Details

Date: 09 April 2020
Orbit: 1017 x 1196 km, 63.4° (Epoch: 02 June)

Event Time Altitude Azimuth Distance (km) Brightness Sun altitude
Exits shadow 17:42:35 39° 328° (NNW) 1,528 4.5 -32.4°
Drops below altitude 10° 17:48:02 10° 18° (NNE) 2,905 6.6 -31.5°
Sets 17:50:56 0° 25° (NNE) 3,890 7.5 -31.0°
